Location: Bosmont
(49.7318°N, 3.8587°E)
Time: 05:22:32
(UTC+00:00)

ATLAS CENTAUR R/B - Pass Details

Date: 08 February 2023
Orbit: 449 x 650 km, 64.7° (Epoch: 28 March)

Event Time Altitude Azimuth Distance (km) Brightness Sun altitude
Rises 18:43:22 0° 294° (WNW) 2,931 6.2 -18.5°
Reaches altitude 10° 18:47:04 10° 323° (NW) 1,980 4.6 -19.1°
Maximum altitude 18:48:58 12° 349° (N) 1,798 4.0 -19.4°
Drops below altitude 10° 18:50:51 10° 14° (NNE) 1,928 3.9 -19.7°
Enters shadow 18:51:03 10° 17° (NNE) 1,960 4.0 -19.7°
